Regional Weather Roundup
Issued by NWS Portland, ME

Home | Current Version | Previous Version | Text Only | Print | Product List | Glossary On
Versions: 1 2 3 4 5 6 7 8 9 10 11 12 13 14 15 16 17 18 19 20 21 22 23 24 25 26 27 28 29 30 31 32 33 34 35 36 37 38 39 40 41 42 43 44 45 46 47 48 49 50
000
ASUS41 KGYX 201210
RWRGYX
WEATHER ROUNDUP FOR MAINE AND NEW HAMPSHIRE
NATIONAL WEATHER SERVICE GRAY ME
800 AM EDT SAT SEP 20 2014

MEZ002-005-006-010-012-015-018-020-021-024-026-027-029-201300-
MAINE

CITY           SKY/WX    TMP DP  RH WIND       PRES   REMARKS
PORTLAND       PTSUNNY   44  38  79 SW5       30.34F
6HR MIN TEMP:  36; 6HR MAX TEMP:  44;

SANFORD        CLOUDY    37  32  81 CALM      30.34F
BAR HARBOR     CLOUDY    54  45  71 S14G21    30.33F
WISCASSET      SUNNY     41  37  86 CALM      30.35F
6HR MIN TEMP:  32; 6HR MAX TEMP:  41;

ROCKLAND       SUNNY     46  41  81 CALM      30.33F
FRYEBURG       CLOUDY    43  37  79 E3        30.31F
6HR MIN TEMP:  30; 6HR MAX TEMP:  45;

LEWISTONAUBURN CLOUDY    45  37  76 S6        30.32F
AUGUSTA        SUNNY     42  36  79 S7        30.32F
6HR MIN TEMP:  36; 6HR MAX TEMP:  42;

WATERVILLE     SUNNY     39  32  75 S6        30.25F
BANGOR         CLOUDY    45  37  73 S12       30.30F
6HR MIN TEMP:  34; 6HR MAX TEMP:  45;

GREENVILLE       N/A     39  31  72 S7        30.19F
6HR MIN TEMP:  35; 6HR MAX TEMP:  39;

MILLINOCKET    CLOUDY    44  35  70 VRB5      30.25F
6HR MIN TEMP:  36; 6HR MAX TEMP:  44;

HOULTON        PTSUNNY   43  33  68 SW9G18    30.22F
6HR MIN TEMP:  39; 6HR MAX TEMP:  43;

PRESQUE ISLE   MOSUNNY   46  30  53 S10       30.15F
6HR MIN TEMP:  39; 6HR MAX TEMP:  46;

FRENCHVILLE    PTSUNNY   40  32  73 S8        30.10F
6HR MIN TEMP:  38; 6HR MAX TEMP:  40;

CARIBOU        MOSUNNY   45  32  60 S13       30.14F
6HR MIN TEMP:  36; 6HR MAX TEMP:  45;

$$

NHZ002-005-008-009-011-012-014-201300-
NEW HAMPSHIRE

CITY           SKY/WX    TMP DP  RH WIND       PRES   REMARKS
PORTSMOUTH     CLOUDY    43  38  84 S7        30.33F
ROCHESTER      CLOUDY    39  35  86 CALM      30.33F
6HR MIN TEMP:  31; 6HR MAX TEMP:  41;

NASHUA         CLOUDY    41  38  89 CALM      30.34F
MANCHESTER     CLOUDY    40  34  79 S5        30.32F
6HR MIN TEMP:  36; 6HR MAX TEMP:  41;

CONCORD        CLOUDY    39  36  89 CALM      30.33F
6HR MIN TEMP:  30; 6HR MAX TEMP:  39;

LACONIA        CLOUDY    45  37  76 W6        30.30F
PLYMOUTH       CLOUDY    38  38 100 CALM      30.32F
BERLIN         CLOUDY    33  32  96 CALM      30.25F
6HR MIN TEMP:  27; 6HR MAX TEMP:  33;

WHITEFIELD     CLOUDY    38  35  89 CALM      30.24F
6HR MIN TEMP:  29; 6HR MAX TEMP:  38;

JAFFREY        CLOUDY    47  42  83 S7        30.31F
6HR MIN TEMP:  34; 6HR MAX TEMP:  47;

LEBANON        CLOUDY    49  40  71 SW9       30.28F
6HR MIN TEMP:  37; 6HR MAX TEMP:  49;

MT WASHINGTON  FOG       36  36 100 W39G49      N/A  VSB 0
6HR MIN TEMP:  30; 6HR MAX TEMP:  36;

$$

VTZ005-007-008-201300-
VERMONT

CITY           SKY/WX    TMP DP  RH WIND       PRES   REMARKS
ST JOHNSBURY     N/A     47  40  76 MISG      30.23F
MONTPELIER     CLOUDY    45  40  82 S14G20    30.26F
BURLINGTON     PTSUNNY   55  44  66 S18G30    30.16F
$$

MAZ007-012-024-CTZ003-RIZ002-NYZ038-NYZ072-201300-
SOUTHERN NEW ENGLAND AND NY

CITY           SKY/WX    TMP DP  RH WIND       PRES   REMARKS
BOSTON         SUNNY     54  46  74 S13       30.35F
WORCESTER      MOSUNNY   49  43  80 S10       30.32F
NANTUCKET      SUNNY     56  47  71 E5        30.38S
PROVIDENCE     MOSUNNY   46  41  82 CALM      30.36F
HARTFORD       MOSUNNY   50  43  77 CALM      30.31F
ALBANY         PTSUNNY   56  47  71 S13       30.24F
NEW YORK CITY  PTSUNNY   61  53  75 SE6       30.29F
$$

ANZ081-ANZ082-ANZ150-NHZ014-MEZ023>029-201300-
COASTAL MARINE OBSERVATIONS

STATION/POSITION TIME  TEMP    WIND        PRES    WAVE
                       AIR SEA DIR/SP/G            HT/PER
                 (UTC) (F)     (DEG/KT/KT) (MB)    (FT/S)
MATINICUS ROCK   1200          220/ 17/ 19 1027.3F
PORTLAND WX BUOY 1150   50 57  260/ 12/ 12 1027.4R   3/ 4
WELLS            1100   45 57  270/  5/  8 1027.3R
ISLE OF SHOALS   1200   55     200/ 18/ 21 1027.0F
JEFFREYS LEDGE   1121      59                N/A     3/ 4
CASHES LEDGE BUO 1150   57 62              1027.6F   3/ 4
$$

.............KEY..............
   WCI - WIND CHILL
   TC  - TEMPERATURE IN CELSIUS
   VSB - VISIBILITY IN MILES
   HX  - HEAT INDEX
   FAIR- INDICATES FEW OR NO CLOUDS BELOW 12,000 FT, WITH NO
         SIGNIFICANT WEATHER AND/OR OBSTRUCTIONS TO VISIBILITY.




USA.gov is the U.S. government's official web portal to all federal, state and local government web resources and services.